Showing default

PICO-02F026, 60567

Orbit data source: Space-Track

PICO-02F026, 60567 is a payload satellite owned by Apogeo Space (IT) in LEO that was launched on Fri, 16 Aug 2024 UTC via an FALCON 9 launch vehicle from the Air Force Western Test Range (AFWTR). Payload-class satellites include a variety of spacecraft equipped with specific instruments for various scientific and technological missions. These include communications satellites like Starlink; space stations such as the ISS; scientific satellites like the Hubble; Earth observation satellites from companies like Planet Labs, Umbra, and HawkEye 360; GPS; miniature CubeSats for education and research; and military/defense satellites.

Not visible in the next 10 days
Identifier
60567, 2024-149DD
Orbit
LEO
Country
Flag of ITIT
Related business
Manufacturer
Apogeo Space
Mission
Decayed Commercial Communications
Bus & Motor
CUBESAT 0.3U, Unknown motor
Mass
0.5 kg wet, 0.5 kg dry
Launch date (UTC)
2024-08-16 (1 year ago)
Launch vehicle
FALCON 9
Launch site
Air Force Western Test Range (AFWTR)
Object type
Payload
Rocket body
Debris
Shape & HBR
Box, 0.1 m
Radar Cross Section
0.008 m², Medium (>0.1 m² and < 1m²)

Expand to show TLE details & history
Last TLE update: 3 days ago

TLE from 3 days ago
0 PICO-02F026
1 60567U 24149DD  26031.90445992  .08816732  25977-5  36446-2 0  9993
2 60567  97.6604 129.8966 0012454 304.4122  55.5990 16.23018783 80911
Epoch: 2026-01-31T21:42Z
TLE epoch observation values (Epoch: 2026-01-31T21:42:25.337Z)
Latitude
0.00004°
Longitude
33.16927°
Altitude
209.958 km
Speed
7.783 km/s
True Right ascension
08h 39m 35s
True Declination
0° 00' 00"
Sunlit
Object was in full shadow at epoch
Visualization orbit readout
Latitude
Unknown
Longitude
Unknown
Altitude
Unknown
Speed
Unknown
Apparent Right ascension
Unknown
Apparent Declination
Unknown
Sunlit
N/A
Visualization observer readout
Local Sidereal Time
05:01:49
Azimuth
Unknown
Elevation
Unknown
Doppler factor
Unknown
Orbital elements
Apogee altitude
216.412 km
Perigee altitude
200.007 km
Semi-major axis
6,586.347 km
Eccentricity
0.00125
Inclination
97.6604°
RAAN
129.8966°
Arg. of periapsis
304.4122°
True anomaly
55.71686°
Mean anomaly
55.599°
Eccentric anomaly
55.65792°
Mean motion
4.06047 °/min
Orbital period
88.66 mins
BSTAR
0.0036446
Loading maneuver chart data...
Computing Atmospheric mass density...
Loading historical data...
Loading historical data...
Loading historical data...
Loading historical data...
Loading historical data...
Loading historical data...
Loading historical data...

Documentation

Showing up to 5 results
|